Weather History for Louisville Bowman, KY

Change the Weather History Date:

Wednesday, September 25, 2013

  Actual Average Record
Temperature  
Mean Temperature 72 °F 65 °F  
Max Temperature 79 °F 76 °F 91 °F (2007)
Min Temperature 64 °F 55 °F 36 °F (1950)
Degree Days  
Heating Degree Days 0 3  
Month to date heating degree days 8 19  
Since 1 July heating degree days 8 19  
Cooling Degree Days 7 3  
Month to date cooling degree days 188 160  
Year to date cooling degree days 1391 1399  
Growing Degree Days 21 (Base 50)    
Moisture  
Dew Point 60 °F    
Average Humidity 71    
Maximum Humidity 87    
Minimum Humidity 54    
Precipitation  
Precipitation 0.00 in 0.11 in 1.24 in (2000)
Month to date precipitation 3.33 2.52  
Year to date precipitation 40.39 34.06  
Sea Level Pressure  
Sea Level Pressure 29.87 in    
Wind  
Wind Speed 4 mph (NE)    
Max Wind Speed 13 mph    
Max Gust Speed 16 mph    
Visibility 10 miles    
Events      
T = Trace of Precipitation, MM = Missing Value Source: NWS Daily Summary

Daily Weather History Graph

Daily Weather History Graph

Search for Another Location

Airport:

Trip Planner

Search our weather history database for the weather conditions in past years. The results will help you decide how hot, cold, wet, or windy it might be!

Date:

Astronomy

Sep. 25, 2013 Rise Set
Actual Time 7:33 AM EDT 7:34 PM EDT
Civil Twilight 7:06 AM EDT 8:00 PM EDT
Nautical Twilight 6:36 AM EDT 8:31 PM EDT
Astronomical Twilight 6:05 AM EDT 9:02 PM EDT
Moon 11:44 PM EDT (9/25) 1:33 PM EDT (9/25)
Length of Visible Light 12h 53m
Length of Day
12h 01m
Waning Gibbous, 64% of the Moon is Illuminated
Sep 25
Waning Gibbous
Sep 26
Last Quarter
Oct 4
New
Oct 11
First Quarter
Oct 18
Full

Hourly Weather History & Observations

Time (EDT) Temp. Dew Point Humidity Pressure Visibility Wind Dir Wind Speed Gust Speed Precip Events Conditions
12:53 AM 68.0 °F 59.0 °F 73% 29.87 in 10.0 mi East 5.8 mph - N/A   Clear
1:53 AM 68.0 °F 59.0 °F 73% 29.86 in 10.0 mi ENE 5.8 mph - N/A   Clear
2:53 AM 66.0 °F 60.1 °F 81% 29.86 in 10.0 mi East 3.5 mph - N/A   Clear
3:53 AM 66.0 °F 60.1 °F 81% 29.85 in 10.0 mi East 5.8 mph - N/A   Clear
4:53 AM 66.0 °F 60.1 °F 81% 29.85 in 10.0 mi Calm Calm - N/A   Clear
5:53 AM 64.9 °F 60.1 °F 84% 29.86 in 10.0 mi Calm Calm - N/A   Clear
6:53 AM 64.9 °F 60.1 °F 84% 29.86 in 10.0 mi Calm Calm - N/A   Partly Cloudy
7:53 AM 64.9 °F 60.1 °F 84% 29.88 in 10.0 mi Calm Calm - N/A   Overcast
8:53 AM 66.0 °F 60.1 °F 81% 29.88 in 10.0 mi Calm Calm - N/A   Clear
9:53 AM 69.1 °F 61.0 °F 75% 29.87 in 10.0 mi ENE 5.8 mph - N/A   Clear
10:53 AM 71.1 °F 62.1 °F 73% 29.88 in 10.0 mi Calm Calm - N/A   Scattered Clouds
11:53 AM 72.0 °F 63.0 °F 73% 29.88 in 10.0 mi North 8.1 mph - N/A   Mostly Cloudy
12:53 PM 73.0 °F 63.0 °F 71% 29.88 in 10.0 mi Variable 5.8 mph - N/A   Overcast
1:53 PM 75.9 °F 64.0 °F 67% 29.87 in 10.0 mi North 5.8 mph - N/A   Scattered Clouds
2:53 PM 77.0 °F 63.0 °F 62% 29.85 in 10.0 mi East 6.9 mph - N/A   Scattered Clouds
3:53 PM 78.1 °F 61.0 °F 56% 29.85 in 10.0 mi NNE 6.9 mph - N/A   Scattered Clouds
4:53 PM 78.1 °F 60.1 °F 54% 29.85 in 10.0 mi ENE 8.1 mph - N/A   Clear
5:53 PM 77.0 °F 59.0 °F 54% 29.85 in 10.0 mi NE 9.2 mph - N/A   Clear
6:53 PM 75.9 °F 59.0 °F 56% 29.86 in 10.0 mi ENE 6.9 mph - N/A   Clear
7:53 PM 73.9 °F 59.0 °F 59% 29.87 in 10.0 mi NE 3.5 mph - N/A   Clear
8:53 PM 72.0 °F 59.0 °F 64% 29.87 in 10.0 mi NE 3.5 mph - N/A   Clear
9:53 PM 70.0 °F 60.1 °F 71% 29.88 in 10.0 mi NE 4.6 mph - N/A   Clear
10:53 PM 68.0 °F 60.1 °F 76% 29.90 in 10.0 mi ENE 3.5 mph - N/A   Partly Cloudy
11:53 PM 66.9 °F 57.0 °F 70% 29.91 in 10.0 mi Calm Calm - N/A   Clear